Time,TemperatureF,DewpointF,PressureIn,WindDirection,WindDirectionDegrees,WindSpeedMPH,WindSpeedGustMPH,Humidity,HourlyPrecipIn,Conditions,Clouds,dailyrainin,SolarRadiationWatts/m^2,SoftwareType,DateUTC
2013-04-18 00:03:00,43.0,37.0,-100.00,SW,222,3.0,4.0,78,0.00,,,0.02,0.000000,,2013-04-18 04:03:00,
2013-04-18 00:12:00,43.0,36.0,-100.00,SW,229,2.0,5.0,77,0.00,,,0.02,0.000000,,2013-04-18 04:12:00,
2013-04-18 00:33:00,43.0,36.0,-100.00,SW,229,2.0,5.0,77,0.00,,,0.02,0.000000,,2013-04-18 04:33:00,
2013-04-18 00:43:00,43.0,36.0,-100.00,SW,229,2.0,5.0,77,0.00,,,0.02,0.000000,,2013-04-18 04:43:00,
2013-04-18 00:53:00,43.0,36.0,-100.00,SW,229,2.0,5.0,77,0.00,,,0.02,0.000000,,2013-04-18 04:53:00,
2013-04-18 01:02:00,43.0,36.0,-100.00,SW,229,2.0,5.0,77,0.00,,,0.02,0.000000,,2013-04-18 05:02:00,
2013-04-18 01:12:00,42.0,36.0,-100.00,NW,322,2.0,3.0,79,0.00,,,0.02,0.000000,,2013-04-18 05:12:00,
2013-04-18 01:33:00,42.0,36.0,-100.00,NW,322,2.0,3.0,79,0.00,,,0.02,0.000000,,2013-04-18 05:33:00,
2013-04-18 01:42:00,42.0,36.0,-100.00,NW,322,2.0,3.0,79,0.00,,,0.02,0.000000,,2013-04-18 05:42:00,
2013-04-18 01:52:00,42.0,36.0,-100.00,NW,322,2.0,3.0,79,0.00,,,0.02,0.000000,,2013-04-18 05:52:00,
2013-04-18 02:02:00,42.0,36.0,-100.00,NW,322,2.0,3.0,79,0.00,,,0.02,0.000000,,2013-04-18 06:02:00,
2013-04-18 02:12:00,42.0,36.0,-100.00,NNW,338,2.0,3.0,78,0.00,,,0.02,0.000000,,2013-04-18 06:12:00,
2013-04-18 02:32:00,42.0,36.0,-100.00,NNW,338,2.0,3.0,78,0.00,,,0.02,0.000000,,2013-04-18 06:32:00,
2013-04-18 02:42:00,42.0,36.0,-100.00,NNW,338,2.0,3.0,78,0.00,,,0.02,0.000000,,2013-04-18 06:42:00,
2013-04-18 02:52:00,42.0,36.0,-100.00,NNW,338,2.0,3.0,78,0.00,,,0.02,0.000000,,2013-04-18 06:52:00,
2013-04-18 03:02:00,42.0,36.0,-100.00,NNW,338,2.0,3.0,78,0.00,,,0.02,0.000000,,2013-04-18 07:02:00,
2013-04-18 03:12:00,43.0,33.0,-100.00,NNE,12,3.0,5.0,67,0.00,,,0.02,0.000000,,2013-04-18 07:12:00,
2013-04-18 03:42:00,43.0,33.0,-100.00,NNE,12,3.0,5.0,67,0.00,,,0.02,0.000000,,2013-04-18 07:42:00,
2013-04-18 03:53:00,43.0,33.0,-100.00,NNE,12,3.0,5.0,67,0.00,,,0.02,0.000000,,2013-04-18 07:53:00,
2013-04-18 04:02:00,43.0,33.0,-100.00,NNE,12,3.0,5.0,67,0.00,,,0.02,0.000000,,2013-04-18 08:02:00,
2013-04-18 04:12:00,44.0,33.0,-100.00,NE,37,2.0,6.0,64,0.00,,,0.02,0.000000,,2013-04-18 08:12:00,
2013-04-18 04:32:00,44.0,33.0,-100.00,NE,37,2.0,6.0,64,0.00,,,0.02,0.000000,,2013-04-18 08:32:00,
2013-04-18 04:42:00,44.0,33.0,-100.00,NE,37,2.0,6.0,64,0.00,,,0.02,0.000000,,2013-04-18 08:42:00,
2013-04-18 04:52:00,44.0,33.0,-100.00,NE,37,2.0,6.0,64,0.00,,,0.02,0.000000,,2013-04-18 08:52:00,
2013-04-18 05:02:00,44.0,33.0,-100.00,NE,37,2.0,6.0,64,0.00,,,0.02,0.000000,,2013-04-18 09:02:00,
2013-04-18 05:12:00,43.0,32.0,-100.00,NE,38,2.0,5.0,65,0.00,,,0.02,0.000000,,2013-04-18 09:12:00,
2013-04-18 05:33:00,43.0,32.0,-100.00,NE,38,2.0,5.0,65,0.00,,,0.02,0.000000,,2013-04-18 09:33:00,
2013-04-18 05:43:00,43.0,32.0,-100.00,NE,38,2.0,5.0,65,0.00,,,0.02,0.000000,,2013-04-18 09:43:00,
2013-04-18 05:53:00,43.0,32.0,-100.00,NE,38,2.0,5.0,65,0.00,,,0.02,0.000000,,2013-04-18 09:53:00,
2013-04-18 06:03:00,43.0,32.0,-100.00,NE,38,2.0,5.0,65,0.00,,,0.02,0.000000,,2013-04-18 10:03:00,
2013-04-18 06:12:00,43.0,33.0,-100.00,ENE,60,5.0,7.0,68,0.00,,,0.02,4.000000,,2013-04-18 10:12:00,
2013-04-18 06:33:00,43.0,33.0,-100.00,ENE,60,5.0,7.0,68,0.00,,,0.02,4.000000,,2013-04-18 10:33:00,
2013-04-18 06:42:00,43.0,33.0,-100.00,ENE,60,5.0,7.0,68,0.00,,,0.02,4.000000,,2013-04-18 10:42:00,
2013-04-18 06:53:00,43.0,33.0,-100.00,ENE,60,5.0,7.0,68,0.00,,,0.02,4.000000,,2013-04-18 10:53:00,
2013-04-18 07:03:00,43.0,33.0,-100.00,ENE,60,5.0,7.0,68,0.00,,,0.02,4.000000,,2013-04-18 11:03:00,
2013-04-18 07:12:00,46.0,37.0,-100.00,East,80,5.0,9.0,72,0.00,,,0.01,144.000000,,2013-04-18 11:12:00,
2013-04-18 07:32:00,46.0,37.0,-100.00,East,80,5.0,9.0,72,0.00,,,0.01,144.000000,,2013-04-18 11:32:00,
2013-04-18 07:42:00,46.0,37.0,-100.00,East,80,5.0,9.0,72,0.00,,,0.01,144.000000,,2013-04-18 11:42:00,
2013-04-18 07:52:00,46.0,37.0,-100.00,East,80,5.0,9.0,72,0.00,,,0.01,144.000000,,2013-04-18 11:52:00,
2013-04-18 08:02:00,46.0,37.0,-100.00,East,80,5.0,9.0,72,0.00,,,0.01,144.000000,,2013-04-18 12:02:00,
2013-04-18 08:12:00,48.0,37.0,-100.00,East,99,7.0,14.0,66,0.00,,,0.00,420.000000,,2013-04-18 12:12:00,
2013-04-18 08:32:00,48.0,37.0,-100.00,East,99,7.0,14.0,66,0.00,,,0.00,420.000000,,2013-04-18 12:32:00,
2013-04-18 08:42:00,48.0,37.0,-100.00,East,99,7.0,14.0,66,0.00,,,0.00,420.000000,,2013-04-18 12:42:00,
2013-04-18 08:53:00,48.0,37.0,-100.00,East,99,7.0,14.0,66,0.00,,,0.00,420.000000,,2013-04-18 12:53:00,
2013-04-18 09:03:00,48.0,37.0,-100.00,East,99,7.0,14.0,66,0.00,,,0.00,420.000000,,2013-04-18 13:03:00,
2013-04-18 09:12:00,50.0,34.0,-100.00,ESE,108,7.0,13.0,54,0.00,,,0.00,679.000000,,2013-04-18 13:12:00,
2013-04-18 09:33:00,50.0,34.0,-100.00,ESE,108,7.0,13.0,54,0.00,,,0.00,679.000000,,2013-04-18 13:33:00,
2013-04-18 09:43:00,50.0,34.0,-100.00,ESE,108,7.0,13.0,54,0.00,,,0.00,679.000000,,2013-04-18 13:43:00,
2013-04-18 09:53:00,50.0,34.0,-100.00,ESE,108,7.0,13.0,54,0.00,,,0.00,679.000000,,2013-04-18 13:53:00,
2013-04-18 10:03:00,50.0,34.0,-100.00,ESE,108,7.0,13.0,54,0.00,,,0.00,679.000000,,2013-04-18 14:03:00,
2013-04-18 10:12:00,51.0,34.0,-100.00,ESE,112,7.0,15.0,53,0.00,,,0.00,902.000000,,2013-04-18 14:12:00,
2013-04-18 10:33:00,51.0,34.0,-100.00,ESE,112,7.0,15.0,53,0.00,,,0.00,902.000000,,2013-04-18 14:33:00,
2013-04-18 10:43:00,51.0,34.0,-100.00,ESE,112,7.0,15.0,53,0.00,,,0.00,902.000000,,2013-04-18 14:43:00,
2013-04-18 10:52:00,51.0,34.0,-100.00,ESE,112,7.0,15.0,53,0.00,,,0.00,902.000000,,2013-04-18 14:52:00,
2013-04-18 11:03:00,51.0,34.0,-100.00,ESE,112,7.0,15.0,53,0.00,,,0.00,902.000000,,2013-04-18 15:03:00,
2013-04-18 11:12:00,55.0,33.0,-100.00,SE,137,6.0,16.0,44,0.00,,,0.00,1066.000000,,2013-04-18 15:12:00,
2013-04-18 11:33:00,55.0,33.0,-100.00,SE,137,6.0,16.0,44,0.00,,,0.00,1066.000000,,2013-04-18 15:33:00,
2013-04-18 11:43:00,55.0,33.0,-100.00,SE,137,6.0,16.0,44,0.00,,,0.00,1066.000000,,2013-04-18 15:43:00,
2013-04-18 11:53:00,55.0,33.0,-100.00,SE,137,6.0,16.0,44,0.00,,,0.00,1066.000000,,2013-04-18 15:53:00,
2013-04-18 12:03:00,55.0,33.0,-100.00,SE,137,6.0,16.0,44,0.00,,,0.00,1066.000000,,2013-04-18 16:03:00,
2013-04-18 12:12:00,56.0,33.0,-100.00,SE,133,7.0,16.0,41,0.00,,,0.00,1160.000000,,2013-04-18 16:12:00,
2013-04-18 12:33:00,56.0,33.0,-100.00,SE,133,7.0,16.0,41,0.00,,,0.00,1160.000000,,2013-04-18 16:33:00,
2013-04-18 12:43:00,56.0,33.0,-100.00,SE,133,7.0,16.0,41,0.00,,,0.00,1160.000000,,2013-04-18 16:43:00,
2013-04-18 12:53:00,56.0,33.0,-100.00,SE,133,7.0,16.0,41,0.00,,,0.00,1160.000000,,2013-04-18 16:53:00,
2013-04-18 13:03:00,56.0,33.0,-100.00,SE,133,7.0,16.0,41,0.00,,,0.00,1160.000000,,2013-04-18 17:03:00,
2013-04-18 13:12:00,56.0,31.0,-100.00,SE,141,7.0,15.0,39,0.00,,,0.00,1176.000000,,2013-04-18 17:12:00,
2013-04-18 13:43:00,56.0,31.0,-100.00,SE,141,7.0,15.0,39,0.00,,,0.00,1176.000000,,2013-04-18 17:43:00,
2013-04-18 13:52:00,56.0,31.0,-100.00,SE,141,7.0,15.0,39,0.00,,,0.00,1176.000000,,2013-04-18 17:52:00,
2013-04-18 14:03:00,56.0,31.0,-100.00,SE,141,7.0,15.0,39,0.00,,,0.00,1176.000000,,2013-04-18 18:03:00,
2013-04-18 14:12:00,57.0,35.0,-100.00,SE,139,6.0,15.0,43,0.00,,,0.00,1117.000000,,2013-04-18 18:12:00,
2013-04-18 14:43:00,57.0,35.0,-100.00,SE,139,6.0,15.0,43,0.00,,,0.00,1117.000000,,2013-04-18 18:43:00,
2013-04-18 14:53:00,57.0,35.0,-100.00,SE,139,6.0,15.0,43,0.00,,,0.00,1117.000000,,2013-04-18 18:53:00,
2013-04-18 15:03:00,57.0,35.0,-100.00,SE,139,6.0,15.0,43,0.00,,,0.00,1117.000000,,2013-04-18 19:03:00,
2013-04-18 15:12:00,58.0,37.0,-100.00,SE,140,7.0,13.0,45,0.00,,,0.00,991.000000,,2013-04-18 19:12:00,
2013-04-18 15:33:00,58.0,37.0,-100.00,SE,140,7.0,13.0,45,0.00,,,0.00,991.000000,,2013-04-18 19:33:00,
2013-04-18 15:43:00,58.0,37.0,-100.00,SE,140,7.0,13.0,45,0.00,,,0.00,991.000000,,2013-04-18 19:43:00,
2013-04-18 15:53:00,58.0,37.0,-100.00,SE,140,7.0,13.0,45,0.00,,,0.00,991.000000,,2013-04-18 19:53:00,
2013-04-18 16:03:00,58.0,37.0,-100.00,SE,140,7.0,13.0,45,0.00,,,0.00,991.000000,,2013-04-18 20:03:00,
2013-04-18 16:12:00,59.0,35.0,-100.00,South,173,6.0,12.0,40,0.00,,,0.00,775.000000,,2013-04-18 20:12:00,
2013-04-18 16:43:00,59.0,35.0,-100.00,South,173,6.0,12.0,40,0.00,,,0.00,775.000000,,2013-04-18 20:43:00,
2013-04-18 16:52:00,59.0,35.0,-100.00,South,173,6.0,12.0,40,0.00,,,0.00,775.000000,,2013-04-18 20:52:00,
2013-04-18 17:03:00,59.0,35.0,-100.00,South,173,6.0,12.0,40,0.00,,,0.00,775.000000,,2013-04-18 21:03:00,
2013-04-18 18:12:00,54.0,31.0,-100.00,SSW,194,6.0,12.0,42,-99.99,,,0.00,117.000000,,2013-04-18 22:12:00,
2013-04-18 18:42:00,54.0,31.0,-100.00,SSW,194,6.0,12.0,42,-99.99,,,0.00,117.000000,,2013-04-18 22:42:00,
2013-04-18 18:53:00,54.0,31.0,-100.00,SSW,194,6.0,12.0,42,-99.99,,,0.00,117.000000,,2013-04-18 22:53:00,
2013-04-18 19:04:00,54.0,31.0,-100.00,SSW,194,6.0,12.0,42,-99.99,,,0.00,117.000000,,2013-04-18 23:04:00,
2013-04-18 19:12:00,51.0,31.0,-100.00,South,177,4.0,9.0,46,0.00,,,0.00,38.000000,,2013-04-18 23:12:00,
2013-04-18 19:32:00,51.0,31.0,-100.00,South,177,4.0,9.0,46,0.00,,,0.00,38.000000,,2013-04-18 23:32:00,
2013-04-18 19:42:00,51.0,31.0,-100.00,South,177,4.0,9.0,46,0.00,,,0.00,38.000000,,2013-04-18 23:42:00,
2013-04-18 19:52:00,51.0,31.0,-100.00,South,177,4.0,9.0,46,0.00,,,0.00,38.000000,,2013-04-18 23:52:00,
2013-04-18 20:01:00,51.0,31.0,-100.00,South,177,4.0,9.0,46,0.00,,,0.00,38.000000,,2013-04-19 00:01:00,
2013-04-18 21:42:00,47.0,39.0,-100.00,SSE,155,5.0,9.0,75,-99.99,,,0.00,0.000000,,2013-04-19 01:42:00,
2013-04-18 21:52:00,47.0,39.0,-100.00,SSE,155,5.0,9.0,75,-99.99,,,0.00,0.000000,,2013-04-19 01:52:00,
2013-04-18 22:02:00,47.0,39.0,-100.00,SSE,155,5.0,9.0,75,-99.99,,,0.00,0.000000,,2013-04-19 02:02:00,
2013-04-18 22:11:00,47.0,39.0,-100.00,SSE,155,5.0,9.0,75,-99.99,,,0.00,0.000000,,2013-04-19 02:11:00,
2013-04-18 22:12:00,47.0,39.0,-100.00,South,175,5.0,12.0,75,0.00,,,0.00,0.000000,,2013-04-19 02:12:00,
2013-04-18 22:32:00,47.0,39.0,-100.00,South,175,5.0,12.0,75,0.00,,,0.00,0.000000,,2013-04-19 02:32:00,
2013-04-18 22:42:00,47.0,39.0,-100.00,South,175,5.0,12.0,75,0.00,,,0.00,0.000000,,2013-04-19 02:42:00,
2013-04-18 22:52:00,47.0,39.0,-100.00,South,175,5.0,12.0,75,0.00,,,0.00,0.000000,,2013-04-19 02:52:00,
2013-04-18 23:01:00,47.0,39.0,-100.00,South,175,5.0,12.0,75,0.00,,,0.00,0.000000,,2013-04-19 03:01:00,
2013-04-18 23:12:00,48.0,42.0,-100.00,South,184,6.0,14.0,80,0.00,,,0.00,0.000000,,2013-04-19 03:12:00,
2013-04-18 23:43:00,48.0,42.0,-100.00,South,184,6.0,14.0,80,0.00,,,0.00,0.000000,,2013-04-19 03:43:00,
2013-04-18 23:53:00,48.0,42.0,-100.00,South,184,6.0,14.0,80,0.00,,,0.00,0.000000,,2013-04-19 03:53:00,